Location: ??????
(56.0120°N, 39.1740°E)
Time: 22:02:37
(UTC+00:00)

COSMOS 2455 - Pass Details

Date: 14 April 2026
Orbit: 901 x 907 km, 67.1° (Epoch: 11 May)

Event Time Altitude Azimuth Distance (km) Brightness Sun altitude
Rises 21:03:27 0° 317° (NW) 3,546 6.7 -24.2°
Reaches altitude 10° 21:06:01 10° 313° (NW) 2,601 5.8 -24.2°
Maximum altitude 21:11:51 54° 238° (WSW) 1,100 3.0 -24.3°
Enters shadow 21:12:30 51° 215° (SW) 1,130 3.0 -24.3°
